Flag for USA

Past Weather in Roseville, California, USA — Yesterday and Last 2 Weeks

Now
86 °F

Clear.


Feels Like: 85 °F
Forecast: 97 / 63 °F
Wind: 9 mph from Southwest

Location: McClellan Air Force Base

Current Time: Aug 7, 2020 at 8:53:25 pm

Latest Report: Aug 7, 2020 at 8:15 pm


Visibility: 10 mi

Pressure: 29.83 "Hg

Humidity: 35%

Dew Point: 55 °F

Location of RosevilleLocation

Past Weather in Roseville — Graph

°F

Roseville Temperature Yesterday

Maximum temperature yesterday: 88 °F (at 4:55 pm)
Minimum temperature yesterday: 59 °F (at 2:35 am)
Average temperature yesterday: 72 °F

High & Low Weather Summary for the Past Weeks

 TemperatureHumidityPressure
High99 °F (Jul 26, 4:35 pm)88% (Aug 6, 3:15 am)29.99 "Hg (Aug 6, 3:15 am)
Low59 °F (Jul 25, 3:35 am)12% (Jul 29, 5:15 pm)29.74 "Hg (Jul 28, 6:55 pm)
Average76 °F49%29.87 "Hg
* Reported Jul 23 7:15 pm — Aug 7 7:35 pm, Roseville. Weather by CustomWeather, © 2020

Note: Actual official high and low records may vary slightly from our data, if they occured in-between our weather recording intervals... More about our weather records

Roseville Weather History for the Previous 24 Hours

Scroll right to see more
 ConditionsComfort  
Time TempWeatherWind HumidityBarometerVisibility
7:35 pm
Fri, Aug 7
90 °FSunny.10 mph26%29.82 "Hg10 mi
7:15 pm91 °FSunny.8 mph24%29.82 "Hg10 mi
6:55 pm91 °FSunny.10 mph24%29.82 "Hg10 mi
6:15 pm91 °FSunny.8 mph23%29.82 "Hg10 mi
5:55 pm93 °FSunny.3 mph23%29.82 "Hg9 mi
5:35 pm93 °FSunny.6 mph23%29.82 "Hg9 mi
4:55 pm91 °FSunny.6 mph24%29.82 "Hg10 mi
4:35 pm91 °FSunny.8 mph24%29.83 "Hg8 mi
4:15 pm91 °FSunny.6 mph28%29.83 "Hg9 mi
3:55 pm91 °FSunny.6 mph28%29.84 "Hg8 mi
3:35 pm90 °FSunny.3 mph29%29.85 "Hg6 mi
3:15 pm90 °FSunny.6 mph31%29.86 "Hg7 mi
2:55 pm90 °FSunny.No wind31%29.86 "Hg8 mi
2:35 pm88 °FSunny.No wind33%29.86 "Hg9 mi
2:15 pm88 °FSunny.5 mph33%29.86 "Hg5 mi
1:55 pm88 °FSunny.7 mph33%29.87 "Hg6 mi
1:35 pm86 °FSunny.N/A35%29.88 "Hg6 mi
1:15 pm86 °FSunny.5 mph35%29.88 "Hg8 mi
12:35 pm82 °FSunny.5 mph40%29.89 "Hg6 mi
12:15 pm82 °FSunny.No wind40%29.89 "Hg9 mi
11:55 am81 °FSunny.No wind42%29.90 "Hg10 mi
11:35 am81 °FSunny.3 mph42%29.90 "Hg9 mi
11:15 am77 °FSunny.5 mph47%29.91 "Hg10 mi
10:55 am77 °FSunny.3 mph47%29.91 "Hg10 mi
10:35 am75 °FSunny.5 mph50%29.91 "Hg10 mi
10:15 am73 °FSunny.5 mph53%29.91 "Hg10 mi
9:55 am72 °FSunny.6 mph57%29.91 "Hg10 mi
9:35 am70 °FSunny.7 mph60%29.91 "Hg9 mi
9:15 am70 °FSunny.5 mph60%29.91 "Hg10 mi
8:55 am68 °FSunny.5 mph64%29.91 "Hg10 mi
8:35 am66 °FSunny.5 mph68%29.91 "Hg10 mi
8:15 am64 °FSunny.No wind73%29.91 "Hg10 mi
7:55 am64 °FSunny.5 mph73%29.90 "Hg10 mi
7:35 am64 °FSunny.5 mph73%29.90 "Hg9 mi
7:15 am63 °FSunny.6 mph77%29.89 "Hg10 mi
6:55 am63 °FSunny.7 mph77%29.88 "Hg10 mi
6:35 am61 °FSunny.7 mph77%29.88 "Hg10 mi
6:15 am61 °FSunny.6 mph77%29.87 "Hg10 mi
5:55 am61 °FClear.7 mph77%29.87 "Hg10 mi
5:35 am63 °FClear.6 mph73%29.87 "Hg10 mi
5:15 am63 °FClear.6 mph73%29.86 "Hg10 mi
4:55 am63 °FClear.7 mph73%29.86 "Hg10 mi
4:35 am63 °FClear.9 mph73%29.85 "Hg10 mi
4:15 am64 °FClear.7 mph68%29.85 "Hg10 mi
3:55 am64 °FClear.8 mph68%29.85 "Hg10 mi
3:35 am64 °FClear.9 mph64%29.85 "Hg10 mi
3:15 am64 °FClear.7 mph64%29.85 "Hg10 mi
2:55 am64 °FClear.7 mph68%29.85 "Hg10 mi
2:35 am64 °FClear.5 mph68%29.85 "Hg10 mi
2:15 am66 °FClear.6 mph60%29.84 "Hg10 mi
1:55 am66 °FLight rain. Clear.8 mph60%29.84 "Hg10 mi
1:35 am66 °FClear.9 mph60%29.85 "Hg10 mi
1:15 am68 °FClear.9 mph60%29.85 "Hg10 mi
12:35 am68 °FPassing clouds.13 mph60%29.85 "Hg10 mi
12:15 am68 °FClear.10 mph60%29.85 "Hg10 mi
11:55 pm
Thu, Aug 6
70 °FClear.12 mph57%29.84 "Hg10 mi
11:35 pm70 °FPassing clouds.13 mph57%29.84 "Hg10 mi
11:15 pm70 °FClear.9 mph57%29.83 "Hg10 mi
10:55 pm72 °FPassing clouds.12 mph53%29.83 "Hg10 mi
10:35 pm72 °FPassing clouds.12 mph53%29.83 "Hg10 mi
10:15 pm73 °FPassing clouds.10 mph50%29.83 "Hg10 mi
9:55 pm75 °FPartly cloudy.9 mph47%29.82 "Hg10 mi
9:35 pm75 °FPassing clouds.9 mph50%29.82 "Hg10 mi
9:15 pm77 °FPassing clouds.10 mph47%29.81 "Hg10 mi
8:55 pm77 °FClear.12 mph44%29.81 "Hg10 mi
8:35 pm79 °FClear.13 mph45%29.80 "Hg10 mi
Weather by CustomWeather, © 2020

See weather overview